Погода в Кудрово

Россия / Санкт-Петербург и Ленинградская область     59°54′30″N   30°30′48″E
темп.,
°C
ветер,
м/с
пор.,
м/с
влажн.,
%
обл.,
%
осадки,
мм/ч
давл.,
гПа
погр.,
м
27 января, ср
ср2700:00+1всв3892100 0.0 999374
03:000в489796 0.1 998449
06:000в3797100 0.1 997446
09:00−1вюв249797 0.3 997198
12:00−2в129221 0.0 997146
15:00−1з019116 0.0 999103
18:00−3ююз009665 0.0 100021
21:00−4ююз129742 0.0 100122
28 января, чт
чт2800:00−4ююз129692 0.1 100325
03:00−4ю129690 0.1 100330
06:00−4ююв119581 0.0 100423
09:00−4ю129776 0.1 100542
12:00−3юв139284 0.1 1005146
15:00−1юв248292 0.1 1004475
18:00−2в2391100 0.0 1004136
21:00−3в2596100 0.1 1003158
29 января, пт
пт2900:00−4в2597100 0.1 1002183
03:00−3всв2596100 0.4 1000247
06:00−4всв3696100 0.6 997293
09:00−4св3695100 1.1 995345
12:00−3св4792100 0.4 994385
15:00−2св3596100 1.2 992205
18:00+1в2698100 0.5 991212
21:00+1вюв3798100 1.3 989294
30 января, сб
сб3000:000ю1399100 0.6 988117
03:00−2юз1298100 2.6 987133
06:00−2ю2697100 1.3 986284
09:00−4ююв259699 1.4 985230
12:00−2юв2491100 0.0 986401
15:00−2вюв359399 0.2 986427
18:00−4в269792 0.3 986213
21:00−4ююв249795 0.9 987211
31 января, вс
вс3100:00−5юв259787 0.1 987199
03:00−5вюв269694 0.2 987267
06:00−6в269796 0.0 987174
09:00−6вюв369594 0.1 987293
12:00−5вюв369294 0.1 988372
15:00−4в249197 0.1 988430
18:00−6всв249699 0.1 989110
21:00−6всв239796 0.3 99091